[[[{"header":{"parameterUnit":"kt","parameterCategory":2,"dx":1,"dy":1,"la1":30.253999710083008,"la2":30.299108505249023,"lo1":-89.0895004272461,"lo2":-89.04439544677734,"nx":28,"ny":28,"refTime":"2022-10-10T21:00:00:Z","depth":0,"parameterNumber":1,"parameterNumberName":"U-component_of_WINDS"},"data":[-5.7342,-5.7451,-5.741,-5.7516,-5.7497,-5.7562,-5.7573,-5.7582,-5.7578,-5.7652,-5.7687,-5.7656,-5.7637,-5.7669,-5.7705,-5.7691,-5.7711,-5.778,-5.7752,-5.7478,-5.7438,-5.7399,-5.7372,-5.7784,-5.7784,-5.8043,-5.8045,-5.8047,-5.7148,-5.7131,-5.7174,-5.7188,-5.7225,-5.7134,-5.7137,-5.7175,-5.7236,-5.7232,-5.7263,-5.7324,-5.7367,-5.7322,-5.7357,-5.7408,-5.7368,-5.7421,-5.7418,-5.7417,-5.7122,-5.7093,-5.7453,-5.7453,-5.7453,-5.7453,-5.7453,-5.7453,-5.6785,-5.6852,-5.6836,-5.6881,-5.6877,-5.6887,-5.6943,-5.6903,-5.6944,-5.6974,-5.6915,-5.6984,-5.6971,-5.6991,-5.6987,-5.704,-5.6974,-5.7019,-5.7031,-5.7045,-5.7067,-5.6707,-5.7043,-5.7041,-5.704,-5.7039,-5.7038,0,-5.6508,-5.6469,-5.6506,-5.6532,-5.6563,-5.6578,-5.6586,-5.6619,-5.652,-5.6559,-5.6611,-5.6634,-5.6679,-5.6724,-5.6746,-5.6731,-5.6643,-5.6627,-5.6659,-5.6691,-5.6718,-5.671,-5.6234,-5.6618,-5.6615,-5.6612,-5.661,-5.6608,-5.6142,-5.6223,-5.6184,-5.6216,-5.6209,-5.6262,-5.6285,-5.6191,-5.622,-5.6214,-5.6278,-5.632,-5.6349,-5.644,-5.6392,-5.6426,-5.6384,-5.6536,-5.6388,-5.6416,-5.6391,-5.6389,-5.6398,-5.6568,-5.6573,-5.6577,-5.6581,0,-5.5941,-5.587,-5.5982,-5.5934,-5.5925,-5.6015,-5.5974,-5.6036,-5.5989,-5.6068,-5.608,-5.6008,-5.606,-5.5987,-5.6031,-5.5992,-5.6143,-5.6098,-5.6147,-5.6136,-5.6268,-5.6258,-5.6699,-5.6754,-5.6321,-5.6325,-5.6328,0,-5.5603,-5.5712,-5.5601,-5.5669,-5.5787,-5.5689,-5.5809,-5.578,-5.5766,-5.5827,-5.5711,-5.5771,-5.5666,-5.5715,-5.5657,-5.5766,-5.5773,-5.575,-5.5735,-5.5763,-5.5767,-5.578,-5.5763,-5.5689,-5.5687,-5.5685,-5.5683,0,-5.5299,-5.5365,-5.5474,-5.5478,-5.5438,-5.5492,-5.5478,-5.5459,-5.5483,-5.55,-5.5514,-5.5542,-5.5558,-5.5582,-5.5507,-5.541,-5.5637,-5.5488,-5.5614,-5.5617,-5.5671,-5.567,-5.6076,-5.568,-5.568,-5.5679,-5.5678,0,-5.5016,-5.5034,-5.5202,-5.5166,-5.5187,-5.5259,-5.5279,-5.5322,-5.5312,-5.5279,-5.5292,-5.5206,-5.5292,-5.5151,-5.5269,-5.5165,-5.5188,-5.5173,-5.518,-5.5187,-5.5032,-5.5276,-5.5666,-5.5706,-5.5189,-5.5185,-5.5182,0,-5.469,-5.4839,-5.4754,-5.4916,-5.4974,-5.484,-5.4917,-5.4911,-5.4873,-5.4918,-5.4874,-5.4927,-5.4805,-5.4811,-5.4878,-5.4838,-5.4973,-5.4817,-5.4888,-5.4891,-5.4899,-5.5256,-5.5335,-5.5588,-5.5128,-5.5134,-5.5138,0,-5.4428,-5.4375,-5.441,-5.4411,-5.4384,-5.4432,-5.452,-5.4549,-5.4584,-5.4587,-5.4661,-5.4729,-5.4641,-5.4652,-5.4584,-5.4659,-5.4879,-5.4555,-5.4553,-5.4619,-5.5093,-5.5168,-5.5211,-5.4817,-5.4823,-5.4828,-5.5095,0,-5.4024,-5.4087,-5.4176,-5.4179,-5.4203,-5.4298,-5.4217,-5.4253,-5.4185,-5.4142,-5.4247,-5.422,-5.425,-5.4277,-5.4211,-5.4404,-5.4361,-5.4266,-5.4126,-5.4359,-5.4446,-5.4481,-5.4004,-5.3999,-5.3995,-5.3992,0,0,-5.3731,-5.382,-5.3723,-5.3804,-5.3819,-5.3677,-5.3787,-5.3784,-5.3783,-5.3798,-5.3717,-5.3812,-5.3795,-5.3931,-5.3997,-5.4007,-5.4036,-5.3957,-5.4248,-5.4277,-5.4303,-5.4397,-5.4434,-5.3985,-5.3984,-5.3982,-5.3981,0,-5.3567,-5.3549,-5.3657,-5.365,-5.3635,-5.3583,-5.361,-5.3571,-5.3548,-5.3648,-5.3531,-5.3583,-5.366,-5.3658,-5.3668,-5.3937,-5.3848,-5.3952,-5.4126,-5.4211,-5.4245,-5.4275,-5.4375,-5.4411,-5.3972,-5.3972,-5.3973,0,-5.3298,-5.3268,-5.331,-5.3334,-5.3323,-5.3386,-5.3217,-5.329,-5.3335,-5.3177,-5.3279,-5.3254,-5.3243,-5.338,-5.3438,-5.3368,-5.3682,-5.3566,-5.3589,-5.3595,-5.3674,-5.3715,-5.3751,-5.3271,-5.3269,-5.3267,0,0,-5.3167,-5.3224,-5.3162,-5.3292,-5.3294,-5.3217,-5.3242,-5.3176,-5.3168,-5.3166,-5.3132,-5.3129,-5.3172,-5.3204,-5.324,-5.3401,-5.3393,-5.3483,-5.3516,-5.3544,-5.3565,-5.3651,-5.3692,-5.3259,-5.3259,-5.3259,0,0,-5.3105,-5.3038,-5.297,-5.3111,-5.3107,-5.3055,-5.3139,-5.3055,-5.3079,-5.3059,-5.2953,-5.2947,-5.3073,-5.3053,-5.2956,-5.3189,-5.3051,-5.3072,-5.3198,-5.3239,-5.3271,-5.3275,-5.2782,0,0,0,0,0,-5.2895,-5.3045,-5.2985,-5.2996,-5.3025,-5.3089,-5.3092,-5.3007,-5.2911,-5.298,-5.2937,-5.2838,-5.2979,-5.2891,-5.2904,-5.3014,-5.3157,-5.3175,-5.3192,-5.3392,-5.3435,-5.3472,0,0,0,0,0,0,-5.2898,-5.2913,-5.2981,-5.2937,-5.2942,-5.3082,-5.2902,-5.2883,-5.2902,-5.2881,-5.2849,-5.2837,-5.2766,-5.2878,-5.2892,-5.2998,-5.2777,-5.3164,-5.3179,-5.3193,-5.3407,-5.3442,-5.3472,0,0,0,0,0,-5.2901,-5.2912,-5.2981,-5.2934,-5.2939,-5.2862,-5.2896,-5.2878,-5.2891,-5.2826,-5.281,-5.2825,-5.2771,-5.2777,-5.2886,-5.2994,-5.2767,-5.2772,-5.3174,-5.3186,-5.3197,-5.3424,0,0,0,0,0,0,-5.2903,-5.2897,-5.298,-5.2978,-5.287,-5.2852,-5.2846,-5.2875,-5.2833,-5.2819,-5.2796,-5.2781,-5.2777,-5.278,-5.2785,-5.2998,-5.2759,-5.2764,-5.2768,-5.3183,-5.3193,-5.3201,0,0,0,0,0,0,-5.289,-5.2897,-5.2979,-5.2903,-5.2892,-5.2844,-5.2839,-5.2918,-5.2834,-5.2805,-5.2791,-5.279,-5.277,-5.2783,-5.2787,-5.2914,-5.2753,-5.2758,-5.2761,-5.2764,-5.3191,-5.3199,0,0,0,0,0,0,-5.2891,-5.2897,-5.2903,-5.2895,-5.2884,-5.2859,-5.2912,-5.2947,-5.2768,-5.2809,-5.275,-5.2742,-5.2777,-5.2777,-5.2789,-5.2915,-5.2914,-5.2753,-5.2756,-5.2759,-5.2761,0,0,0,0,0,0,0,-5.2892,-5.2876,-5.299,-5.2887,-5.2878,-5.2963,-5.2963,-5.2962,-5.2767,-5.2759,-5.2752,-5.2745,-5.2723,-5.2729,-5.2735,-5.2917,0,0,-5.2752,-5.2755,0,0,0,0,0,0,0,0,-5.2872,-5.2875,-5.299,-5.2989,-5.2989,-5.2963,-5.2963,-5.2962,-5.2765,-5.2759,-5.2754,-5.2748,-5.2725,-5.2729,-5.2734,0,0,0,0,0,0,0,0,0,0,0,0,0,0,0,-5.299,-5.2989,0,-5.2963,-5.2963,-5.2962,-5.2765,-5.276,-5.2755,-5.275,-5.2726,-5.273,-5.2734,0,0,0,0,0,0,0,0,0,0,0,0,0,0,0,0,0,0,0,0,0,0,0,0,0,0,0,0,0,0,0,0,0,0,0,0,0,0,0,0,0,0,0,0,0,0,0,0,0,0,0,0,0,0,0,0,0,0,0,0,0,0,0,0,0,0,0,0,0]}],[{"header":{"parameterUnit":"kt","parameterCategory":2,"dx":1,"dy":1,"la1":30.253999710083008,"la2":30.299108505249023,"lo1":-89.0895004272461,"lo2":-89.04439544677734,"nx":28,"ny":28,"refTime":"2022-10-10T21:00:00:Z","depth":0,"parameterNumber":2,"parameterNumberName":"V-component_of_WINDS"},"data":[-6.6061,-6.6155,-6.6143,-6.6244,-6.625,-6.6317,-6.6336,-6.636,-6.6375,-6.6451,-6.6492,-6.6487,-6.6496,-6.6541,-6.6583,-6.658,-6.66,-6.6642,-6.6631,-6.6453,-6.6428,-6.6404,-6.6382,-6.6646,-6.6646,-6.6817,-6.6819,-6.682,-6.5931,-6.5938,-6.5988,-6.6029,-6.6071,-6.6023,-6.605,-6.6088,-6.6148,-6.6167,-6.6207,-6.6272,-6.6321,-6.6315,-6.636,-6.6402,-6.6381,-6.6415,-6.6412,-6.6415,-6.6224,-6.6201,-6.6431,-6.6431,-6.6431,-6.6431,-6.6431,-6.6431,-6.5692,-6.5749,-6.5766,-6.582,-6.5837,-6.5863,-6.5915,-6.5909,-6.5956,-6.6003,-6.5977,-6.6044,-6.6059,-6.6106,-6.6118,-6.6169,-6.6129,-6.6161,-6.617,-6.6179,-6.6191,-6.5949,-6.6175,-6.6174,-6.6174,-6.6173,-6.6173,0,-6.5513,-6.5499,-6.5546,-6.559,-6.5629,-6.5661,-6.5688,-6.5719,-6.5682,-6.5723,-6.5781,-6.5811,-6.5871,-6.5922,-6.596,-6.5966,-6.5919,-6.5912,-6.5935,-6.595,-6.5958,-6.5956,-6.5647,-6.5906,-6.5904,-6.5902,-6.5901,-6.59,-6.5272,-6.534,-6.5352,-6.5386,-6.5398,-6.5455,-6.5485,-6.5448,-6.5482,-6.5508,-6.5559,-6.5611,-6.565,-6.5742,-6.5733,-6.5776,-6.5754,-6.5855,-6.5761,-6.5772,-6.5757,-6.5755,-6.5761,-6.5875,-6.5878,-6.5881,-6.5883,0,-6.5138,-6.5117,-6.5218,-6.5222,-6.5225,-6.5297,-6.53,-6.5354,-6.5342,-6.5415,-6.5429,-6.541,-6.5466,-6.544,-6.5498,-6.5482,-6.5599,-6.5575,-6.5594,-6.5588,-6.5677,-6.5669,-6.5965,-6.6002,-6.5726,-6.5729,-6.5731,0,-6.4925,-6.5015,-6.4979,-6.5038,-6.5136,-6.5097,-6.5195,-6.5194,-6.5207,-6.5264,-6.5207,-6.5261,-6.5219,-6.5269,-6.5246,-6.5337,-6.5347,-6.5341,-6.5334,-6.5347,-6.5349,-6.5365,-6.5353,-6.5314,-6.5313,-6.5312,-6.531,0,-6.4718,-6.4803,-6.49,-6.4916,-6.4929,-6.4975,-6.4982,-6.4997,-6.5027,-6.5061,-6.508,-6.5122,-6.5146,-6.5179,-6.515,-6.5087,-6.5259,-6.5167,-6.5253,-6.5254,-6.5294,-6.5292,-6.556,-6.5309,-6.5308,-6.5308,-6.5307,0,-6.4543,-6.4581,-6.4723,-6.4733,-6.4757,-6.482,-6.486,-6.4907,-6.4927,-6.4917,-6.4943,-6.4902,-6.4978,-6.4889,-6.4993,-6.492,-6.4946,-6.4947,-6.4952,-6.4959,-6.486,-6.5016,-6.5272,-6.5299,-6.4963,-6.496,-6.4957,0,-6.4313,-6.4451,-6.4419,-6.4555,-6.4615,-6.4548,-6.4616,-6.4635,-6.4628,-6.4676,-6.4667,-6.4723,-6.465,-6.4664,-6.4719,-6.4712,-6.4807,-6.4698,-6.4768,-6.4771,-6.4767,-6.5002,-6.5048,-6.5219,-6.492,-6.4924,-6.4927,0,-6.4132,-6.4149,-6.4175,-6.4192,-6.4212,-6.4262,-6.4341,-6.4388,-6.4423,-6.4449,-6.4515,-6.4591,-6.454,-6.4563,-6.4534,-6.4593,-6.4741,-6.453,-6.453,-6.457,-6.4899,-6.4942,-6.4971,-6.4708,-6.4713,-6.4716,-6.4898,0,-6.3875,-6.3941,-6.4011,-6.4051,-6.4085,-6.4169,-6.4143,-6.4182,-6.4151,-6.4141,-6.4235,-6.4243,-6.4291,-6.4316,-6.4286,-6.4429,-6.4401,-6.4345,-6.4258,-6.4411,-6.447,-6.4494,-6.4172,-6.4169,-6.4167,-6.4165,0,0,-6.366,-6.3755,-6.3717,-6.3793,-6.382,-6.375,-6.3841,-6.3858,-6.3896,-6.3915,-6.3866,-6.3976,-6.3985,-6.4102,-6.4148,-6.4167,-6.419,-6.4137,-6.4338,-6.4358,-6.4375,-6.4439,-6.4465,-6.416,-6.416,-6.4159,-6.4158,0,-6.3561,-6.3574,-6.3666,-6.3682,-6.3706,-6.3692,-6.3714,-6.3724,-6.3722,-6.3814,-6.3754,-6.3807,-6.3897,-6.3914,-6.3935,-6.4122,-6.4074,-6.4138,-6.4249,-6.4315,-6.4338,-6.4358,-6.4425,-6.445,-6.4152,-6.4153,-6.4153,0,-6.338,-6.3388,-6.343,-6.3488,-6.3502,-6.3566,-6.3467,-6.3538,-6.3584,-6.3502,-6.3595,-6.3596,-6.3617,-6.3732,-6.3782,-6.3738,-6.397,-6.3892,-6.3905,-6.3911,-6.3974,-6.4002,-6.4026,-6.3708,-6.3706,-6.3705,0,0,-6.3298,-6.3359,-6.3357,-6.3465,-6.3478,-6.3458,-6.3489,-6.3462,-6.3483,-6.3492,-6.3493,-6.3515,-6.3566,-6.3601,-6.3648,-6.3776,-6.3778,-6.3838,-6.3859,-6.3876,-6.3891,-6.3959,-6.3986,-6.3699,-6.3699,-6.3699,0,0,-6.3258,-6.3261,-6.3226,-6.3348,-6.3371,-6.3375,-6.3442,-6.3399,-6.3439,-6.3426,-6.3383,-6.3387,-6.3492,-6.3496,-6.3427,-6.3616,-6.3529,-6.3545,-6.361,-6.3636,-6.3657,-6.3654,-6.3327,0,0,0,0,0,-6.3145,-6.326,-6.3229,-6.3246,-6.3319,-6.3393,-6.3402,-6.3369,-6.3308,-6.3362,-6.3355,-6.3301,-6.3449,-6.3387,-6.3403,-6.3482,-6.363,-6.3642,-6.3654,-6.3768,-6.3795,-6.3819,0,0,0,0,0,0,-6.3151,-6.3172,-6.3226,-6.3236,-6.3251,-6.3388,-6.3278,-6.3273,-6.3302,-6.329,-6.3304,-6.3302,-6.3274,-6.3376,-6.3392,-6.3467,-6.3321,-6.3635,-6.3645,-6.3654,-6.3777,-6.38,-6.3819,0,0,0,0,0,-6.3156,-6.3172,-6.3299,-6.3233,-6.3247,-6.3232,-6.3274,-6.3268,-6.329,-6.3281,-6.3276,-6.3263,-6.3277,-6.3288,-6.3385,-6.346,-6.331,-6.3316,-6.3641,-6.365,-6.3657,-6.3788,0,0,0,0,0,0,-6.316,-6.3167,-6.3301,-6.3303,-6.3188,-6.3223,-6.3228,-6.3265,-6.3278,-6.3275,-6.3237,-6.3227,-6.3281,-6.3288,-6.3297,-6.346,-6.3301,-6.3307,-6.3311,-6.3648,-6.3654,-6.366,0,0,0,0,0,0,-6.3158,-6.317,-6.3302,-6.3246,-6.3243,-6.3216,-6.322,-6.3297,-6.3279,-6.3232,-6.3225,-6.3232,-6.3268,-6.329,-6.3296,-6.3418,-6.3295,-6.33,-6.3304,-6.3307,-6.3653,-6.3658,0,0,0,0,0,0,-6.3163,-6.3173,-6.3245,-6.3243,-6.3239,-6.3269,-6.3283,-6.3359,-6.3232,-6.3233,-6.322,-6.3214,-6.327,-6.3276,-6.3295,-6.3415,-6.3417,-6.3295,-6.3299,-6.3301,-6.3303,0,0,0,0,0,0,0,-6.3166,-6.3104,-6.3283,-6.3239,-6.3236,-6.3331,-6.3332,-6.3332,-6.3231,-6.3226,-6.3221,-6.3217,-6.3262,-6.3268,-6.3275,-6.3413,0,0,-6.3294,-6.3297,0,0,0,0,0,0,0,0,-6.3099,-6.3103,-6.3283,-6.3284,-6.3285,-6.3331,-6.3332,-6.3332,-6.323,-6.3226,-6.3222,-6.3219,-6.3264,-6.3269,-6.3274,0,0,0,0,0,0,0,0,0,0,0,0,0,0,0,-6.3283,-6.3284,0,-6.3331,-6.3332,-6.3332,-6.323,-6.3226,-6.3223,-6.322,-6.3265,-6.3269,-6.3274,0,0,0,0,0,0,0,0,0,0,0,0,0,0,0,0,0,0,0,0,0,0,0,0,0,0,0,0,0,0,0,0,0,0,0,0,0,0,0,0,0,0,0,0,0,0,0,0,0,0,0,0,0,0,0,0,0,0,0,0,0,0,0,0,0,0,0,0,0]}]]]